Miscellaneous Local Product
Issued by NWS North Platte, NE

Home | Current Version | Previous Version | Text Only | Print | Product List | Glossary On
Versions: 1 2 3 4 5 6 7 8 9 10 11 12 13 14 15 16 17 18 19 20 21 22 23 24 25 26 27 28 29 30 31 32 33 34 35 36 37 38 39 40 41 42 43 44 45 46 47 48 49 50
000
AXUS43 KLBF 281510
MISLBF


WESTERN AND NORTH CENTRAL NEBRASKA HOURLY WEATHER ROUNDUP
NATIONAL WEATHER SERVICE NORTH PLATTE NE
1000 AM CDT THU JUL 28 2016

NOTE: "FAIR" INDICATES FEW OR NO CLOUDS BELOW 12,000 FEET WITH NO
SIGNIFICANT WEATHER AND/OR OBSTRUCTIONS TO VISIBILITY.

NOTE: STATIONS NOT REPORTING VARIABLES SUCH AS SKY/WEATHER OR
PRESSURE ARE PROVIDED BY RAWS AND APRS NETWORKS AND ARE NOT UNDER
NATIONAL WEATHER SERVICE QUALITY CONTROL.

...OBSERVATIONS IN AND NEAR THE EASTERN PANHANDLE OF NEBRASKA...

CITY           SKY/WX    TMP DP  RH WIND       PRES   REMARKS
PINE RIDGE     LGT RAIN  65  61  87 NW6       30.14R
CHADRON        LGT RAIN  64  58  80 NW12      30.19R
ALLIANCE       TSTM      59  57  93 SE16      30.14S FOG
SIDNEY         PTSUNNY   64  61  90 E15       30.18F
CRESCENT LAKE    N/A     65  56  71 E13         N/A
$$

...OBSERVATIONS IN NORTHERN NEBRASKA AND FAR SOUTHERN SOUTH DAKOTA...

CITY           SKY/WX    TMP DP  RH WIND       PRES   REMARKS
WINNER         FAIR      68  62  81 E8        30.11F
VALENTINE      HAZE      64  59  83 NE6       30.13S VSB 3/4
THEDFORD       RAIN      63  61  93 S17       30.10F
AINSWORTH      CLOUDY    64  64 100 SE5       30.13F
O`NEILL        MOSUNNY   72  61  70 CALM      30.13S
ORD            PTSUNNY   72  62  71 E6        30.11R
BROKEN BOW     CLOUDY    68  65  90 NW5       30.14R
VALENTINE NWR    N/A     62  60  93 SW5         N/A
BUTTE            N/A     71  62  73 E3          N/A
HALSEY           N/A     62  59  90 NW3         N/A
EWING            N/A     72  64  76 E3          N/A
$$

...OBSERVATIONS IN SOUTHWEST NEBRASKA AND FAR NORTHEAST COLORADO...

CITY           SKY/WX    TMP DP  RH WIND       PRES   REMARKS
HOLYOKE        FAIR      73  68  83 W14       30.14F
IMPERIAL       CLOUDY    67  63  87 E13       30.13F
OGALLALA       CLOUDY    65  61  85 E12       30.12F
NORTH PLATTE   TSTM      63  61  93 W17       30.24R
MCCOOK         MOSUNNY   73  62  68 NE10      30.14R
LEXINGTON      MOSUNNY   70  63  80 E5        30.13R
STAPLETON        N/A     62  60  93 CALM        N/A
GOTHENBURG       N/A     67  58  72 E5          N/A
CALLAWAY         N/A     65  62  90 NE5         N/A
$$

...OBSERVATIONS IN CENTRAL LINCOLN COUNTY AREA...

CITY           SKY/WX    TMP DP  RH WIND       PRES   REMARKS
N.P. AIRPORT   TSTM      63  61  93 W17       30.24R
N.P. DOWNTOWN    N/A     62  60  93 NW10G18     N/A
N.P. SOUTHEAST   N/A     61  59  94 NW9G18      N/A
N.P. HILLCREST   N/A     62  60  94 W14G22      N/A
$$

...SOME OBSERVATIONS FROM AROUND THE REGION...

CITY           SKY/WX    TMP DP  RH WIND       PRES   REMARKS
DENVER         MOSUNNY   76  57  51 N10G18    30.17R
LARAMIE        SUNNY     64  50  60 N8        30.31S
CHEYENNE       FOG       58  57  97 E8        30.26F VSB 1/4
SCOTTSBLUFF    CLOUDY    66  55  67 SE10      30.16F
RAPID CITY     CLOUDY    66  60  81 NW10      30.15R
BISMARCK       CLOUDY    67  58  72 E5        30.16S
PIERRE         SUNNY     72  55  55 SE12      30.10F
SIOUX FALLS    CLOUDY    71  63  75 NE7       30.08S
OMAHA          MOSUNNY   77  68  73 N9        30.03S
GRAND ISLAND   SUNNY     74  65  73 VRB6      30.09F
KANSAS CITY    PTSUNNY   80  69  69 N5        29.98F
WICHITA        CLOUDY    85  69  58 NE10      29.97F
OKLAHOMA CITY  MOSUNNY   83  74  74 N6        30.00F
DALLAS         PTSUNNY   84  71  65 SW10      29.99F
AMARILLO       SUNNY     77  61  57 E10       30.17S
DODGE CITY     SUNNY     77  65  66 E5        30.04F
HAYS           MOSUNNY   79  61  53 E3        30.03F
GOODLAND       SUNNY     76  59  55 S12       30.06F
$$




USA.gov is the U.S. government's official web portal to all federal, state and local government web resources and services.